Location: ?????
(37.7324°N, 23.9257°E)
Time: 21:43:01
(UTC+00:00)

Spot 2 - Pass Details

Date: 29 November 2020
Orbit: 569 x 774 km, 98.7° (Epoch: 18 January)

Event Time Altitude Azimuth Distance (km) Brightness Sun altitude
Rises 04:16:47 0° 12° (NNE) 3,259 7.7 -12.2°
Reaches altitude 10° 04:19:07 10° 11° (NNE) 2,326 6.9 -11.8°
Maximum altitude 04:24:17 82° 285° (WNW) 776 4.4 -10.8°
Drops below altitude 10° 04:29:16 10° 198° (SSW) 2,249 7.0 -9.9°
Sets 04:31:30 0° 198° (SSW) 3,144 7.7 -9.5°
